OPS 4682 DEB, 38361

Orbit data source: Space-Track

OPS 4682 DEB, 38361 is space debris in LEO originally from a launch on Sat, 03 Apr 1965 UTC launched from the Air Force Western Test Range (AFWTR). Debris objects in space refer to the collection of defunct objects orbiting the Earth. Examples of debris include non-operational satellites, rocket bodies, and fragments generated from explosions, collisions, or faulty payload assembly.

Loading next visibility...
Identifier
38361, 1965-027BN
Orbit
LEO
Country
Flag of USUS
Related business
Manufacturer
Unknown
Mission
Spacecraft
Bus & Motor
Unknown
Mass
Unknown
Launch date (UTC)
1965-04-03 (61 years ago)
Launch vehicle
Unknown
Launch site
Air Force Western Test Range (AFWTR)
Object type
Payload
Rocket body
Debris
Shape & HBR
Unknown shape, 0.1 m
Radar Cross Section
Small (<0.1 m²)

Expand to show TLE details & history
Last TLE update: 2 days ago

TLE from 2 days ago
0 OPS 4682 DEB
1 38361U 65027BN  25348.03565260  .00000631  00000-0  20600-2 0  9990
2 38361  90.2364   7.5670 0033265  31.8841 328.4285 13.00268362561887
Epoch: 2025-12-14T00:51Z
TLE epoch observation values (Epoch: 2025-12-14T00:51:20.384Z)
Latitude
-0.00011°
Longitude
-88.22228°
Altitude
1,242.288 km
Speed
7.244 km/s
True Right ascension
00h 30m 16s
True Declination
0° 00' 00"
Sunlit
Object was in daylight at epoch
Visualization orbit readout
Latitude
Unknown
Longitude
Unknown
Altitude
Unknown
Speed
Unknown
Apparent Right ascension
Unknown
Apparent Declination
Unknown
Sunlit
N/A
Visualization observer readout
Local Sidereal Time
13:24:39
Azimuth
Unknown
Elevation
Unknown
Doppler factor
Unknown
Orbital elements
Apogee altitude
1,283.564 km
Perigee altitude
1,232.76 km
Semi-major axis
7,636.299 km
Eccentricity
0.00333
Inclination
90.2364°
RAAN
7.567°
Arg. of periapsis
31.8841°
True anomaly
328.22821°
Mean anomaly
328.4285°
Eccentric anomaly
328.32843°
Mean motion
3.25251 °/min
Orbital period
110.68 mins
BSTAR
0.00206
Loading maneuver chart data...
Computing Atmospheric mass density...
Loading historical data...
Loading historical data...
Loading historical data...
Loading historical data...
Loading historical data...
Loading historical data...
Loading historical data...

Documentation

Showing up to 5 results
|